Stations météo

réclame
Mon MeteoGroup
Cap Ferret, France (7500): Température de l'air & dewpoint: 17.09.2017 22:00:00 - 23.09.2017 22:00:00 (CEST)Cap Ferret, France (7500): Vitesse du vent & gusts: 17.09.2017 22:00:00 - 23.09.2017 22:00:00 (CEST)Cap Ferret, France (7500): Direction du vent: 17.09.2017 22:00:00 - 23.09.2017 22:00:00 (CEST)Cap Ferret, France (7500): reduced air pressure: 17.09.2017 22:00:00 - 23.09.2017 22:00:00 (CEST)Cap Ferret, France (7500): visibility: 17.09.2017 22:00:00 - 23.09.2017 22:00:00 (CEST)Cap Ferret, France (7500): Ensoleillement: 17.09.2017 22:00:00 - 23.09.2017 22:00:00 (CEST)Cap Ferret, France (7500): Quantités de précipitations: 17.09.2017 22:00:00 - 23.09.2017 22:00:00 (CEST)
Date & Time tt [°C] td [°C] ff [km/h] ff [knt] fx [km/h] fx [knt] dd ppp [hPa] vv [km] sd [min] rr [mm]
23.09.2017 22:00:00 - - - - - - - - - - -
23.09.2017 21:00:00 19,0 14,9 9 5 14 7 NNE 1018,2 - 0 0,0
23.09.2017 20:00:00 21,9 16,0 8 5 18 10 N 1018,0 15 32 0,0
23.09.2017 19:00:00 24,7 15,1 3 1 14 8 NW 1017,6 - 60 0,0
23.09.2017 18:00:00 25,6 15,0 9 5 14 7 WSW 1017,4 - 60 0,0
23.09.2017 17:00:00 26,6 15,3 11 6 16 9 W 1017,5 15 60 0,0
23.09.2017 16:00:00 27,0 14,1 8 4 16 9 S 1017,7 - 60 0,0
23.09.2017 15:00:00 25,4 14,2 9 5 22 12 E 1018,3 - 60 0,0
23.09.2017 14:00:00 23,8 14,5 6 4 20 11 ENE 1019,0 15 60 0,0
23.09.2017 13:00:00 22,1 14,0 9 5 20 11 ESE 1019,4 - 60 0,0
23.09.2017 12:00:00 20,5 15,3 8 4 16 9 NE 1019,7 - 60 0,0
23.09.2017 11:00:00 18,7 14,2 8 5 16 9 E 1019,8 15 60 0,0
23.09.2017 10:00:00 16,5 13,6 6 4 18 10 E 1019,8 - 55 0,0
23.09.2017 09:00:00 14,6 13,0 10 5 20 11 ESE 1019,8 - 19 0,0
23.09.2017 08:00:00 14,1 12,7 11 6 21 11 E 1020,0 10 0 0,0
23.09.2017 07:00:00 14,2 12,8 12 6 24 13 ESE 1020,2 - 0 0,0
23.09.2017 06:00:00 14,4 12,9 10 5 17 9 E 1020,5 - 0 0,0
23.09.2017 05:00:00 14,6 12,5 8 4 22 12 ESE 1020,8 10 0 0,0
23.09.2017 04:00:00 14,4 11,9 9 5 21 11 ENE 1021,4 - 0 0,0
23.09.2017 03:00:00 14,8 12,1 11 6 24 13 ENE 1022,0 - 0 0,0
23.09.2017 02:00:00 15,2 11,8 16 9 28 15 NE 1022,4 13 0 0,0
23.09.2017 01:00:00 15,4 12,5 15 8 27 15 ENE 1022,5 - 0 0,0
23.09.2017 00:00:00 15,9 13,0 16 9 26 14 NE 1022,8 - 0 0,0
22.09.2017 23:00:00 16,4 13,3 16 9 24 13 NE 1022,7 13 0 0,0
22.09.2017 22:00:00 16,8 13,9 14 8 23 12 NNE 1022,6 - 0 0,0
22.09.2017 21:00:00 17,0 13,5 13 7 25 13 N 1022,5 - 0 0,0
22.09.2017 20:00:00 17,6 13,3 16 8 23 13 NNW 1022,4 15 43 0,0
22.09.2017 19:00:00 18,9 13,5 14 8 22 12 NNW 1022,1 - 60 0,0
22.09.2017 18:00:00 20,1 13,5 11 6 21 11 NW 1022,1 - 60 0,0
22.09.2017 17:00:00 20,1 12,8 13 7 22 12 NW 1022,3 15 60 0,0
22.09.2017 16:00:00 19,9 12,6 15 8 27 15 NNW 1022,6 - 60 0,0
22.09.2017 15:00:00 19,7 12,2 15 8 27 15 NNW 1022,8 - 51 0,0
22.09.2017 14:00:00 19,2 12,5 16 8 25 13 NW 1023,1 15 5 0,0
22.09.2017 13:00:00 19,3 12,8 12 7 23 12 N 1023,1 - 38 0,0
22.09.2017 12:00:00 18,3 13,6 8 4 18 10 N 1023,1 - 44 0,0
22.09.2017 11:00:00 18,3 14,0 10 5 18 10 NNE 1022,5 - 19 0,0
22.09.2017 10:00:00 17,1 13,2 8 4 14 7 NNE 1022,3 - 0 0,0
22.09.2017 09:00:00 17,0 13,3 8 5 16 9 NE 1021,9 - 0 0,0
22.09.2017 08:00:00 17,0 12,9 8 5 17 9 NNE 1021,5 10 0 0,0
22.09.2017 07:00:00 17,2 13,7 9 5 14 8 N 1021,1 - 0 0,0
22.09.2017 06:00:00 17,2 13,5 8 4 21 11 N 1021,0 - 0 0,0
22.09.2017 05:00:00 17,5 13,8 11 6 23 12 N 1021,2 10 0 0,0
22.09.2017 04:00:00 17,7 14,4 12 7 20 11 N 1021,2 - 0 0,0
22.09.2017 03:00:00 17,8 14,9 9 5 28 15 N 1021,2 - 0 0,0
22.09.2017 02:00:00 18,0 15,4 17 9 29 16 NNW 1021,1 15 0 0,0
22.09.2017 01:00:00 17,3 13,8 15 8 23 12 NNW 1020,9 - 0 0,0
22.09.2017 00:00:00 15,9 13,2 9 5 13 7 NNW 1020,5 - 0 0,0
21.09.2017 23:00:00 16,5 12,8 8 5 14 7 N 1020,3 - 0 0,0
21.09.2017 22:00:00 17,8 13,1 9 5 23 12 N 1020,1 - 0 0,0
21.09.2017 21:00:00 18,5 12,9 13 7 28 15 NNW 1019,6 - 0 0,0
21.09.2017 20:00:00 18,9 12,2 17 9 29 15 NNW 1019,1 15 2 0,0
21.09.2017 19:00:00 20,0 11,2 18 10 29 16 NW 1018,4 - 19 0,0
21.09.2017 18:00:00 21,1 13,0 19 10 27 15 NW 1018,1 - 60 0,0
21.09.2017 17:00:00 20,9 13,3 13 7 21 11 WNW 1017,8 15 60 0,0
21.09.2017 16:00:00 21,1 12,5 15 8 21 12 W 1017,5 - 60 0,0
21.09.2017 15:00:00 21,2 11,8 11 6 18 10 W 1017,4 - 60 0,0
21.09.2017 14:00:00 20,4 11,6 8 5 16 9 W 1017,4 15 60 0,0
21.09.2017 13:00:00 20,8 11,7 5 3 11 6 W 1017,6 - 57 0,0
21.09.2017 12:00:00 19,4 10,4 5 3 11 6 ENE 1017,6 - 60 0,0
21.09.2017 11:00:00 17,8 9,2 5 3 16 9 ENE 1017,5 15 60 0,0
21.09.2017 10:00:00 16,0 8,2 10 5 26 14 ENE 1017,4 - 60 0,0
21.09.2017 09:00:00 14,4 7,7 10 5 24 13 E 1017,1 - 52 0,0
21.09.2017 08:00:00 13,1 7,7 11 6 19 10 ENE 1017,0 15 0 0,0
21.09.2017 07:00:00 13,2 7,6 6 4 21 11 E 1016,7 - 0 0,0
21.09.2017 06:00:00 13,7 7,7 9 5 20 11 ESE 1016,9 - 0 0,0
21.09.2017 05:00:00 14,2 7,9 8 5 21 11 E 1017,1 15 0 0,0
21.09.2017 04:00:00 14,5 8,0 11 6 22 12 E 1017,4 - 0 0,0
21.09.2017 03:00:00 14,2 8,6 8 5 18 10 E 1017,8 - 0 0,0
21.09.2017 02:00:00 14,3 8,0 8 5 21 11 E 1018,1 15 0 0,0
21.09.2017 01:00:00 16,0 7,7 12 6 24 13 E 1018,0 - 0 0,0
21.09.2017 00:00:00 16,5 7,9 16 8 28 15 E 1018,1 - 0 0,0
20.09.2017 23:00:00 17,0 8,7 13 7 24 13 E 1018,3 15 0 0,0
20.09.2017 22:00:00 17,6 9,0 12 6 20 11 E 1018,6 - 0 0,0
20.09.2017 21:00:00 18,3 9,4 13 7 22 12 E 1018,8 - 0 0,0
20.09.2017 20:00:00 19,2 9,7 12 6 23 12 ENE 1019,0 - 49 0,0
20.09.2017 19:00:00 20,6 9,5 13 7 26 14 ENE 1019,2 - 60 0,0
20.09.2017 18:00:00 21,3 10,1 15 8 27 14 NE 1019,5 - 60 0,0
20.09.2017 17:00:00 21,8 9,0 10 5 25 13 ENE 1020,2 - 60 0,0
20.09.2017 16:00:00 21,7 7,9 10 5 19 10 E 1020,7 - 60 0,0
20.09.2017 15:00:00 21,0 8,3 11 6 22 12 ESE 1021,3 - 60 0,0
20.09.2017 14:00:00 19,8 8,2 9 5 25 13 E 1021,8 15 60 0,0
20.09.2017 13:00:00 18,4 8,6 12 7 21 11 E 1022,4 - 60 0,0
20.09.2017 12:00:00 18,0 9,6 7 4 19 10 ESE 1023,2 - 60 0,0
20.09.2017 11:00:00 16,4 10,0 10 5 23 13 ESE 1023,6 15 60 0,0
20.09.2017 10:00:00 15,5 9,8 13 7 23 13 SE 1023,7 - 60 0,0
20.09.2017 09:00:00 14,1 10,1 11 6 18 10 ESE 1023,7 - 53 0,0
20.09.2017 08:00:00 11,0 9,1 11 6 18 10 SE 1023,8 - 0 0,0
20.09.2017 07:00:00 11,0 8,2 8 5 18 10 SE 1023,8 - 0 0,0
20.09.2017 06:00:00 10,1 8,2 9 5 15 8 ESE 1024,0 - 0 0,0
20.09.2017 05:00:00 10,5 9,1 10 5 14 8 ESE 1024,4 15 0 0,0
20.09.2017 04:00:00 10,0 7,9 7 4 12 7 E 1024,7 - 0 0,0
20.09.2017 03:00:00 10,5 8,3 7 4 12 7 ENE 1024,8 - 0 0,0
20.09.2017 02:00:00 10,9 8,6 6 4 12 6 ENE 1025,0 15 0 0,0
20.09.2017 01:00:00 10,9 8,3 6 4 12 6 ENE 1025,2 - 0 0,0
20.09.2017 00:00:00 11,3 7,8 9 5 12 7 NE 1025,5 - 0 0,0
19.09.2017 23:00:00 12,6 8,1 10 5 15 8 NNE 1025,6 15 0 0,0
19.09.2017 22:00:00 13,7 8,1 11 6 18 10 N 1025,8 - 0 0,0
19.09.2017 21:00:00 15,0 7,8 10 5 22 12 N 1025,6 - 0 0,0
19.09.2017 20:00:00 15,9 8,4 13 7 26 14 NNW 1025,3 15 22 0,0
19.09.2017 19:00:00 17,1 8,5 13 7 26 14 NNW 1025,0 - 45 0,0
19.09.2017 18:00:00 18,2 8,7 16 9 31 17 NW 1024,9 - 50 0,0
19.09.2017 17:00:00 19,5 9,1 17 9 31 17 NW 1025,0 15 60 0,0
19.09.2017 16:00:00 20,0 8,6 16 9 33 18 NW 1025,1 - 60 0,0
19.09.2017 15:00:00 19,9 9,7 18 10 36 20 NNW 1025,3 - 60 0,0
19.09.2017 14:00:00 19,0 10,0 23 12 40 22 NNW 1025,5 15 60 0,0
19.09.2017 13:00:00 19,0 10,5 25 14 42 23 NNW 1025,3 - 56 0,0
19.09.2017 12:00:00 17,6 10,7 22 12 43 23 NNW 1025,0 - 22 0,0
19.09.2017 11:00:00 19,0 10,5 21 11 35 19 WNW 1024,7 - 36 0,2
19.09.2017 10:00:00 17,9 10,0 21 12 31 17 WNW 1024,4 - 56 0,0
19.09.2017 09:00:00 16,3 9,0 19 10 35 19 NW 1024,1 - 42 0,0
19.09.2017 08:00:00 15,2 8,9 22 12 32 18 WNW 1023,9 15 0 0,0
19.09.2017 07:00:00 14,9 8,8 19 10 32 17 WNW 1023,6 - 0 0,0
19.09.2017 06:00:00 15,2 9,5 19 10 32 18 NW 1023,5 - 0 0,0
19.09.2017 05:00:00 15,2 9,1 19 10 27 14 NW 1023,4 15 0 0,0
19.09.2017 04:00:00 14,8 9,6 16 8 24 13 NW 1023,6 - 0 0,0
19.09.2017 03:00:00 14,7 9,1 13 7 25 13 NNW 1023,8 - 0 0,0
19.09.2017 02:00:00 14,8 9,4 16 9 26 14 NW 1023,6 15 0 0,0
19.09.2017 01:00:00 15,1 9,7 15 8 24 13 NW 1023,7 - 0 0,0
19.09.2017 00:00:00 14,3 9,9 12 7 23 13 NNW 1023,8 - 0 0,0
18.09.2017 23:00:00 14,1 8,9 12 7 21 12 NNW 1023,3 15 0 0,0
18.09.2017 22:00:00 14,7 8,9 13 7 29 16 N 1023,0 - 0 0,0
18.09.2017 21:00:00 15,5 9,2 19 10 34 18 NNW 1022,5 - 0 0,0
18.09.2017 20:00:00 15,8 9,9 21 12 34 19 NNW 1021,8 25 43 0,0
18.09.2017 19:00:00 17,4 10,3 17 9 29 16 NNW 1020,8 - 60 0,0
18.09.2017 18:00:00 18,2 10,8 21 11 30 16 NNW 1020,6 - 60 0,0
18.09.2017 17:00:00 18,9 10,2 18 10 30 16 NNW 1020,4 25 60 0,0
18.09.2017 16:00:00 19,2 11,2 18 10 31 17 NNW 1020,1 - 60 0,0
18.09.2017 15:00:00 19,0 11,1 19 10 29 16 NNW 1019,9 - 60 0,0
18.09.2017 14:00:00 18,5 11,8 16 8 26 14 NNW 1019,6 15 50 0,0
18.09.2017 13:00:00 17,4 12,7 4 2 17 9 NNW 1019,4 - 31 0,0
18.09.2017 12:00:00 17,3 13,8 9 5 19 10 NE 1019,1 - 46 0,0
18.09.2017 11:00:00 15,5 13,7 6 4 16 9 NE 1018,6 12 13 0,0
18.09.2017 10:00:00 14,5 13,5 8 5 14 7 NE 1018,1 - 0 0,0
18.09.2017 09:00:00 13,9 13,1 8 4 11 6 NNE 1017,6 - 0 0,0
18.09.2017 08:00:00 13,3 12,4 8 5 9 5 N 1017,1 12 0 0,0
18.09.2017 07:00:00 13,3 12,2 2 1 4 2 W 1016,8 - 0 0,0
18.09.2017 06:00:00 13,4 12,3 4 2 12 7 S 1016,7 - 0 0,4
18.09.2017 05:00:00 13,9 12,8 9 5 21 11 NNE 1016,8 6 0 0,4
18.09.2017 04:00:00 14,1 12,8 17 9 36 20 WNW 1016,9 - 0 0,2
18.09.2017 03:00:00 14,1 13,0 6 4 11 6 SW 1017,2 - 0 0,4
18.09.2017 02:00:00 14,1 13,0 5 3 9 5 SE 1017,5 6 0 0,8
18.09.2017 01:00:00 14,3 13,0 7 4 11 6 NE 1017,9 - 0 1,1
18.09.2017 00:00:00 14,7 13,2 7 4 11 6 NE 1018,2 - 0 0,4
17.09.2017 23:00:00 15,2 12,7 11 6 33 18 W 1017,8 10 0 3,0
17.09.2017 22:00:00 16,4 11,1 25 13 34 18 W 1017,7 - 0 0,0

tt = Température de l'air
td = dewpoint
ff = Vitesse du vent
fx = gusts
dd = Direction du vent
ppp = reduced air pressure
vv = visibility
sd = Ensoleillement
rr = Quantités de précipitations

stations d'obs. à proximité